Simultaneous Nadir Overpasses (SNOs) Predictions

Prediction of SNOs between LANDSAT-8 and NOAA-19 Satellite Orbit:

Table of predicted SNOs for the next 14.0 days since TLE Epoch: 10/15/2016
Index Date (LANDSAT-8) Time (LANDSAT-8) Lat,Lon (LANDSAT-8) SZA (LANDSAT-8 ) Date (NOAA-19) Time (NOAA-19) Lat,Lon (NOAA-19) SZA (NOAA-19 ) Distance(km) Time Diff (sec)
1 10/16/2016 03:51:43 -75.23, -51.77 95.62 10/16/2016 03:50:38 -75.22, -51.69 95.64 2.78 65
2 10/16/2016 04:41:10 75.16, 115.68 84.32 10/16/2016 04:41:40 75.15, 115.78 84.32 3.17 30
3 10/18/2016 09:25:26 75.26, 44.87 85.23 10/18/2016 09:24:40 75.24, 44.80 85.20 2.71 46
4 10/18/2016 10:14:55 -75.18,-147.70 94.84 10/18/2016 10:15:36 -75.16,-147.68 94.86 3.08 41
5 10/20/2016 14:59:12 -75.23, 141.35 94.00 10/20/2016 14:58:35 -75.23, 141.40 94.00 1.63 37
6 10/20/2016 15:48:39 75.15, -51.21 85.93 10/20/2016 15:49:38 75.16, -51.14 85.95 2.21 59
7 10/22/2016 20:32:55 75.24,-122.06 86.80 10/22/2016 20:32:37 75.22,-122.01 86.78 2.57 18
8 10/22/2016 21:22:24 -75.17, 45.39 93.27 10/22/2016 21:23:33 -75.18, 45.38 93.24 0.94 69
9 10/25/2016 02:06:40 -75.25, -25.46 92.41 10/25/2016 02:06:32 -75.26, -25.56 92.41 3.17 8
10 10/25/2016 02:56:19 74.56, 140.41 86.85 10/25/2016 02:57:23 74.59, 143.68 87.04 96.80 64
11 10/27/2016 06:50:48 -75.72, -95.19 91.14 10/27/2016 06:49:41 -75.80, -98.04 91.19 78.36 67
12 10/27/2016 07:40:23 75.24, 71.10 88.35 10/27/2016 07:40:34 75.22, 71.11 88.33 2.83 11
